Year,Month,Day,Hour,Minute,Value (Times are PST for temperature in C)
2015,06,08,00,00,15.70
2015,06,08,00,01,15.70
2015,06,08,00,02,15.70
2015,06,08,00,03,15.60
2015,06,08,00,04,15.60
2015,06,08,00,05,15.60
2015,06,08,00,06,15.60
2015,06,08,00,07,15.60
2015,06,08,00,08,15.60
2015,06,08,00,09,15.60
2015,06,08,00,10,15.60
2015,06,08,00,11,15.60
2015,06,08,00,12,15.60
2015,06,08,00,13,15.60
2015,06,08,00,14,15.60
2015,06,08,00,15,15.60
2015,06,08,00,16,15.60
2015,06,08,00,17,15.50
2015,06,08,00,18,15.50
2015,06,08,00,19,15.50
2015,06,08,00,20,15.50
2015,06,08,00,21,15.40
2015,06,08,00,22,15.40
2015,06,08,00,23,15.40
2015,06,08,00,24,15.40
2015,06,08,00,25,15.40
2015,06,08,00,26,15.40
2015,06,08,00,27,15.40
2015,06,08,00,28,15.40
2015,06,08,00,29,15.30
2015,06,08,00,30,15.30
2015,06,08,00,31,15.30
2015,06,08,00,32,15.30
2015,06,08,00,33,15.30
2015,06,08,00,34,15.30
2015,06,08,00,35,15.30
2015,06,08,00,36,15.30
2015,06,08,00,37,15.20
2015,06,08,00,38,15.20
2015,06,08,00,39,15.20
2015,06,08,00,40,15.20
2015,06,08,00,41,15.20
2015,06,08,00,42,15.20
2015,06,08,00,43,15.20
2015,06,08,00,44,15.20
2015,06,08,00,45,15.20
2015,06,08,00,46,15.20
2015,06,08,00,47,15.20
2015,06,08,00,48,15.20
2015,06,08,00,49,15.20
2015,06,08,00,50,15.20
2015,06,08,00,51,15.20
2015,06,08,00,52,15.10
2015,06,08,00,53,15.10
2015,06,08,00,54,15.10
2015,06,08,00,55,15.20
2015,06,08,00,56,15.10
2015,06,08,00,57,15.10
2015,06,08,00,58,15.10
2015,06,08,00,59,15.10
2015,06,08,01,00,15.10
2015,06,08,01,01,15.10
2015,06,08,01,02,15.10
2015,06,08,01,03,15.10
2015,06,08,01,04,15.10
2015,06,08,01,05,15.10
2015,06,08,01,06,15.10
2015,06,08,01,07,15.20
2015,06,08,01,08,15.20
2015,06,08,01,09,15.10
2015,06,08,01,10,15.20
2015,06,08,01,11,15.20
2015,06,08,01,12,15.20
2015,06,08,01,13,15.20
2015,06,08,01,14,15.20
2015,06,08,01,15,15.20
2015,06,08,01,16,15.20
2015,06,08,01,17,15.20
2015,06,08,01,18,15.10
2015,06,08,01,19,15.10
2015,06,08,01,20,15.10
2015,06,08,01,21,15.10
2015,06,08,01,22,15.10
2015,06,08,01,23,15.10
2015,06,08,01,24,15.10
2015,06,08,01,25,15.10
2015,06,08,01,26,15.10
2015,06,08,01,27,15.10
2015,06,08,01,28,15.10
2015,06,08,01,29,15.10
2015,06,08,01,30,15.10
2015,06,08,01,31,15.10
2015,06,08,01,32,15.10
2015,06,08,01,33,15.10
2015,06,08,01,34,15.10
2015,06,08,01,35,15.10
2015,06,08,01,36,15.10
2015,06,08,01,37,15.10
2015,06,08,01,38,15.10
2015,06,08,01,39,15.10
2015,06,08,01,40,15.10
2015,06,08,01,41,15.10
2015,06,08,01,42,15.10
2015,06,08,01,43,15.10
2015,06,08,01,44,15.00
2015,06,08,01,45,15.00
2015,06,08,01,46,15.00
2015,06,08,01,47,15.00
2015,06,08,01,48,15.00
2015,06,08,01,49,15.00
2015,06,08,01,50,15.00
2015,06,08,01,51,15.00
2015,06,08,01,52,15.00
2015,06,08,01,53,15.00
2015,06,08,01,54,15.00
2015,06,08,01,55,15.00
2015,06,08,01,56,15.00
2015,06,08,01,57,15.00
2015,06,08,01,58,15.00
2015,06,08,01,59,15.00
2015,06,08,02,00,15.00
2015,06,08,02,01,15.00
2015,06,08,02,02,15.00
2015,06,08,02,03,15.00
2015,06,08,02,04,14.90
2015,06,08,02,05,14.90
2015,06,08,02,06,14.90
2015,06,08,02,07,14.90
2015,06,08,02,08,14.90
2015,06,08,02,09,14.90
2015,06,08,02,10,14.90
2015,06,08,02,11,14.90
2015,06,08,02,12,14.90
2015,06,08,02,13,14.90
2015,06,08,02,14,14.90
2015,06,08,02,15,14.90
2015,06,08,02,16,14.80
2015,06,08,02,17,14.80
2015,06,08,02,18,14.80
2015,06,08,02,19,14.80
2015,06,08,02,20,14.80
2015,06,08,02,21,14.80
2015,06,08,02,22,14.80
2015,06,08,02,23,14.80
2015,06,08,02,24,14.80
2015,06,08,02,25,14.80
2015,06,08,02,26,14.80
2015,06,08,02,27,14.80
2015,06,08,02,28,14.70
2015,06,08,02,29,14.80
2015,06,08,02,30,14.80
2015,06,08,02,31,14.80
2015,06,08,02,32,14.80
2015,06,08,02,33,14.70
2015,06,08,02,34,14.70
2015,06,08,02,35,14.70
2015,06,08,02,36,14.70
2015,06,08,02,37,14.70
2015,06,08,02,38,14.70
2015,06,08,02,39,14.70
2015,06,08,02,40,14.70
2015,06,08,02,41,14.70
2015,06,08,02,42,14.70
2015,06,08,02,43,14.70
2015,06,08,02,44,14.80
2015,06,08,02,45,14.80
2015,06,08,02,46,14.80
2015,06,08,02,47,14.80
2015,06,08,02,48,14.80
2015,06,08,02,49,14.80
2015,06,08,02,50,14.80
2015,06,08,02,51,14.80
2015,06,08,02,52,14.80
2015,06,08,02,53,14.80
2015,06,08,02,54,14.70
2015,06,08,02,55,14.80
2015,06,08,02,56,14.70
2015,06,08,02,57,14.70
2015,06,08,02,58,14.70
2015,06,08,02,59,14.70
2015,06,08,03,00,14.70
2015,06,08,03,01,14.70
2015,06,08,03,02,14.70
2015,06,08,03,03,14.70
2015,06,08,03,04,14.70
2015,06,08,03,05,14.70
2015,06,08,03,06,14.70
2015,06,08,03,07,14.70
2015,06,08,03,08,14.70
2015,06,08,03,09,14.70
2015,06,08,03,10,14.70
2015,06,08,03,11,14.70
2015,06,08,03,12,14.70
2015,06,08,03,13,14.70
2015,06,08,03,14,14.70
2015,06,08,03,15,14.70
2015,06,08,03,16,14.70
2015,06,08,03,17,14.70
2015,06,08,03,18,14.70
2015,06,08,03,19,14.70
2015,06,08,03,20,14.60
2015,06,08,03,21,14.60
2015,06,08,03,22,14.60
2015,06,08,03,23,14.50
2015,06,08,03,24,14.40
2015,06,08,03,25,14.40
2015,06,08,03,26,14.30
2015,06,08,03,27,14.30
2015,06,08,03,28,14.20
2015,06,08,03,29,14.20
2015,06,08,03,30,14.10
2015,06,08,03,31,14.10
2015,06,08,03,32,14.10
2015,06,08,03,33,14.00
2015,06,08,03,34,14.00
2015,06,08,03,35,13.90
2015,06,08,03,36,13.90
2015,06,08,03,37,13.90
2015,06,08,03,38,13.80
2015,06,08,03,39,13.80
2015,06,08,03,40,13.80
2015,06,08,03,41,13.80
2015,06,08,03,42,13.70
2015,06,08,03,43,13.70
2015,06,08,03,44,13.70
2015,06,08,03,45,13.70
2015,06,08,03,46,13.60
2015,06,08,03,47,13.60
2015,06,08,03,48,13.50
2015,06,08,03,49,13.50
2015,06,08,03,50,13.40
2015,06,08,03,51,13.40
2015,06,08,03,52,13.30
2015,06,08,03,53,13.30
2015,06,08,03,54,13.30
2015,06,08,03,55,13.20
2015,06,08,03,56,13.20
2015,06,08,03,57,13.10
2015,06,08,03,58,13.10
2015,06,08,03,59,13.00
2015,06,08,04,00,13.00
2015,06,08,04,01,13.00
2015,06,08,04,02,12.90
2015,06,08,04,03,12.90
2015,06,08,04,04,12.80
2015,06,08,04,05,12.80
2015,06,08,04,06,12.80
2015,06,08,04,07,12.80
2015,06,08,04,08,12.70
2015,06,08,04,09,12.70
2015,06,08,04,10,12.70
2015,06,08,04,11,12.60
2015,06,08,04,12,12.60
2015,06,08,04,13,12.60
2015,06,08,04,14,12.60
2015,06,08,04,15,12.60
2015,06,08,04,16,12.50
2015,06,08,04,17,12.50
2015,06,08,04,18,12.40
2015,06,08,04,19,12.40
2015,06,08,04,20,12.40
2015,06,08,04,21,12.40
2015,06,08,04,22,12.30
2015,06,08,04,23,12.30
2015,06,08,04,24,12.30
2015,06,08,04,25,12.30
2015,06,08,04,26,12.20
2015,06,08,04,27,12.20
2015,06,08,04,28,12.20
2015,06,08,04,29,12.20
2015,06,08,04,30,12.20
2015,06,08,04,31,12.10
2015,06,08,04,32,12.10
2015,06,08,04,33,12.10
2015,06,08,04,34,12.10
2015,06,08,04,35,12.10
2015,06,08,04,36,12.10
2015,06,08,04,37,12.00
2015,06,08,04,38,12.00
2015,06,08,04,39,12.00
2015,06,08,04,40,12.00
2015,06,08,04,41,11.90
2015,06,08,04,42,11.90
2015,06,08,04,43,11.90
2015,06,08,04,44,11.90
2015,06,08,04,45,11.90
2015,06,08,04,46,11.80
2015,06,08,04,47,11.80
2015,06,08,04,48,11.80
2015,06,08,04,49,11.80
2015,06,08,04,50,11.80
2015,06,08,04,51,11.70
2015,06,08,04,52,11.70
2015,06,08,04,53,11.70
2015,06,08,04,54,11.70
2015,06,08,04,55,11.70
2015,06,08,04,56,11.70
2015,06,08,04,57,11.70
2015,06,08,04,58,11.70
2015,06,08,04,59,11.60
2015,06,08,05,00,11.60
2015,06,08,05,01,11.60
2015,06,08,05,02,11.60
2015,06,08,05,03,11.60
2015,06,08,05,04,11.60
2015,06,08,05,05,11.60
2015,06,08,05,06,11.60
2015,06,08,05,07,11.60
2015,06,08,05,08,11.60
2015,06,08,05,09,11.60
2015,06,08,05,10,11.60
2015,06,08,05,11,11.50
2015,06,08,05,12,11.50
2015,06,08,05,13,11.50
2015,06,08,05,14,11.50
2015,06,08,05,15,11.50
2015,06,08,05,16,11.50
2015,06,08,05,17,11.50
2015,06,08,05,18,11.40
2015,06,08,05,19,11.40
2015,06,08,05,20,11.40
2015,06,08,05,21,11.40
2015,06,08,05,22,11.40
2015,06,08,05,23,11.40
2015,06,08,05,24,11.40
2015,06,08,05,25,11.40
2015,06,08,05,26,11.40
2015,06,08,05,27,11.40
2015,06,08,05,28,11.40
2015,06,08,05,29,11.30
2015,06,08,05,30,11.30
2015,06,08,05,31,11.30
2015,06,08,05,32,11.30
2015,06,08,05,33,11.30
2015,06,08,05,34,11.30
2015,06,08,05,35,11.30
2015,06,08,05,36,11.30
2015,06,08,05,37,11.30
2015,06,08,05,38,11.30
2015,06,08,05,39,11.30
2015,06,08,05,40,11.30
2015,06,08,05,41,11.30
2015,06,08,05,42,11.30
2015,06,08,05,43,11.30
2015,06,08,05,44,11.30
2015,06,08,05,45,11.20
2015,06,08,05,46,11.20
2015,06,08,05,47,11.20
2015,06,08,05,48,11.20
2015,06,08,05,49,11.20
2015,06,08,05,50,11.20
2015,06,08,05,51,11.20
2015,06,08,05,52,11.20
2015,06,08,05,53,11.20
2015,06,08,05,54,11.20
2015,06,08,05,55,11.20
2015,06,08,05,56,11.20
2015,06,08,05,57,11.20
2015,06,08,05,58,11.20
2015,06,08,05,59,11.20
2015,06,08,06,00,11.20
2015,06,08,06,01,11.20
2015,06,08,06,02,11.20
2015,06,08,06,03,11.20
2015,06,08,06,04,11.20
2015,06,08,06,05,11.20
2015,06,08,06,06,11.20
2015,06,08,06,07,11.20
2015,06,08,06,08,11.20
2015,06,08,06,09,11.20
2015,06,08,06,10,11.20
2015,06,08,06,11,11.20
2015,06,08,06,12,11.20
2015,06,08,06,13,11.30
2015,06,08,06,14,11.30
2015,06,08,06,15,11.30
2015,06,08,06,16,11.30
2015,06,08,06,17,11.40
2015,06,08,06,18,11.40
2015,06,08,06,19,11.40
2015,06,08,06,20,11.40
2015,06,08,06,21,11.50
2015,06,08,06,22,11.50
2015,06,08,06,23,11.50
2015,06,08,06,24,11.60
2015,06,08,06,25,11.60
2015,06,08,06,26,11.70
2015,06,08,06,27,11.70
2015,06,08,06,28,11.70
2015,06,08,06,29,11.80
2015,06,08,06,30,11.80
2015,06,08,06,31,11.80
2015,06,08,06,32,11.90
2015,06,08,06,33,11.90
2015,06,08,06,34,12.00
2015,06,08,06,35,12.00
2015,06,08,06,36,12.10
2015,06,08,06,37,12.10
2015,06,08,06,38,12.20
2015,06,08,06,39,12.20
2015,06,08,06,40,12.30
2015,06,08,06,41,12.40
2015,06,08,06,42,12.40
2015,06,08,06,43,12.50
2015,06,08,06,44,12.60
2015,06,08,06,45,12.60
2015,06,08,06,46,12.70
2015,06,08,06,47,12.80
2015,06,08,06,48,12.80
2015,06,08,06,49,12.90
2015,06,08,06,50,13.00
2015,06,08,06,51,13.10
2015,06,08,06,52,13.10
2015,06,08,06,53,13.20
2015,06,08,06,54,13.20
2015,06,08,06,55,13.30
2015,06,08,06,56,13.30
2015,06,08,06,57,13.30
2015,06,08,06,58,13.40
2015,06,08,06,59,13.40
2015,06,08,07,00,13.40
2015,06,08,07,01,13.40
2015,06,08,07,02,13.50
2015,06,08,07,03,13.50
2015,06,08,07,04,13.50
2015,06,08,07,05,13.60
2015,06,08,07,06,13.60
2015,06,08,07,07,13.60
2015,06,08,07,08,13.70
2015,06,08,07,09,13.70
2015,06,08,07,10,13.70
2015,06,08,07,11,13.70
2015,06,08,07,12,13.80
2015,06,08,07,13,13.80
2015,06,08,07,14,13.80
2015,06,08,07,15,13.90
2015,06,08,07,16,13.90
2015,06,08,07,17,14.00
2015,06,08,07,18,14.10
2015,06,08,07,19,14.10
2015,06,08,07,20,14.20
2015,06,08,07,21,14.30
2015,06,08,07,22,14.30
2015,06,08,07,23,14.40
2015,06,08,07,24,14.40
2015,06,08,07,25,14.50
2015,06,08,07,26,14.60
2015,06,08,07,27,14.70
2015,06,08,07,28,14.70
2015,06,08,07,29,14.80
2015,06,08,07,30,14.90
2015,06,08,07,31,15.00
2015,06,08,07,32,15.00
2015,06,08,07,33,15.10
2015,06,08,07,34,15.20
2015,06,08,07,35,15.30
2015,06,08,07,36,15.40
2015,06,08,07,37,15.40
2015,06,08,07,38,15.50
2015,06,08,07,39,15.60
2015,06,08,07,40,15.70
2015,06,08,07,41,15.80
2015,06,08,07,42,15.80
2015,06,08,07,43,15.90
2015,06,08,07,44,16.00
2015,06,08,07,45,16.00
2015,06,08,07,46,16.10
2015,06,08,07,47,16.10
2015,06,08,07,48,16.20
2015,06,08,07,49,16.20
2015,06,08,07,50,16.30
2015,06,08,07,51,16.30
2015,06,08,07,52,16.40
2015,06,08,07,53,16.40
2015,06,08,07,54,16.40
2015,06,08,07,55,16.50
2015,06,08,07,56,16.50
2015,06,08,07,57,16.60
2015,06,08,07,58,16.60
2015,06,08,07,59,16.70
2015,06,08,08,00,16.70
2015,06,08,08,01,16.80
2015,06,08,08,02,16.80
2015,06,08,08,03,16.90
2015,06,08,08,04,16.90
2015,06,08,08,05,17.00
2015,06,08,08,06,17.00
2015,06,08,08,07,17.10
2015,06,08,08,08,17.20
2015,06,08,08,09,17.30
2015,06,08,08,10,17.30
2015,06,08,08,11,17.30
2015,06,08,08,12,17.30
2015,06,08,08,13,17.30
2015,06,08,08,14,17.30
2015,06,08,08,15,17.30
2015,06,08,08,16,17.30
2015,06,08,08,17,17.30
2015,06,08,08,18,17.40
2015,06,08,08,19,17.40
2015,06,08,08,20,17.40
2015,06,08,08,21,17.40
2015,06,08,08,22,17.40
2015,06,08,08,23,17.40
2015,06,08,08,24,17.40
2015,06,08,08,25,17.40
2015,06,08,08,26,17.50
2015,06,08,08,27,17.50
2015,06,08,08,28,17.50
2015,06,08,08,29,17.50
2015,06,08,08,30,17.60
2015,06,08,08,31,17.60
2015,06,08,08,32,17.60
2015,06,08,08,33,17.70
2015,06,08,08,34,17.70
2015,06,08,08,35,17.70
2015,06,08,08,36,17.80
2015,06,08,08,37,17.80
2015,06,08,08,38,17.80
2015,06,08,08,39,17.90
2015,06,08,08,40,17.90
2015,06,08,08,41,17.90
2015,06,08,08,42,18.00
2015,06,08,08,43,18.00
2015,06,08,08,44,18.00
2015,06,08,08,45,18.00
2015,06,08,08,46,18.00
2015,06,08,08,47,18.10
2015,06,08,08,48,18.10
2015,06,08,08,49,18.20
2015,06,08,08,50,18.20
2015,06,08,08,51,18.30
2015,06,08,08,52,18.30
2015,06,08,08,53,18.40
2015,06,08,08,54,18.40
2015,06,08,08,55,18.40
2015,06,08,08,56,18.40
2015,06,08,08,57,18.40
2015,06,08,08,58,18.40
2015,06,08,08,59,18.50
2015,06,08,09,00,18.50
2015,06,08,09,01,18.50
2015,06,08,09,02,18.50
2015,06,08,09,03,18.40
2015,06,08,09,04,18.30
2015,06,08,09,05,18.30
2015,06,08,09,06,18.20
2015,06,08,09,07,18.10
2015,06,08,09,08,18.00
2015,06,08,09,09,18.00
2015,06,08,09,10,17.90
2015,06,08,09,11,17.90
2015,06,08,09,12,17.80
2015,06,08,09,13,17.80
2015,06,08,09,14,17.70
2015,06,08,09,15,17.60
2015,06,08,09,16,17.50
2015,06,08,09,17,17.40
2015,06,08,09,18,17.30
2015,06,08,09,19,17.20
2015,06,08,09,20,17.10
2015,06,08,09,21,17.00
2015,06,08,09,22,16.90
2015,06,08,09,23,16.80
2015,06,08,09,24,16.70
2015,06,08,09,25,16.70
2015,06,08,09,26,16.60
2015,06,08,09,27,16.60
2015,06,08,09,28,16.60
2015,06,08,09,29,16.60
2015,06,08,09,30,16.50
2015,06,08,09,31,16.40
2015,06,08,09,32,16.30
2015,06,08,09,33,16.20
2015,06,08,09,34,16.10
2015,06,08,09,35,16.00
2015,06,08,09,36,15.90
2015,06,08,09,37,15.80
2015,06,08,09,38,15.80
2015,06,08,09,39,15.80
2015,06,08,09,40,15.80
2015,06,08,09,41,15.80
2015,06,08,09,42,15.80
2015,06,08,09,43,15.80
2015,06,08,09,44,15.80
2015,06,08,09,45,15.90
2015,06,08,09,46,16.00
2015,06,08,09,47,16.00
2015,06,08,09,48,16.10
2015,06,08,09,49,16.20
2015,06,08,09,50,16.20
2015,06,08,09,51,16.30
2015,06,08,09,52,16.30
2015,06,08,09,53,16.40
2015,06,08,09,54,16.50
2015,06,08,09,55,16.60
2015,06,08,09,56,16.60
2015,06,08,09,57,16.60
2015,06,08,09,58,16.60
2015,06,08,09,59,16.60
2015,06,08,10,00,16.60
2015,06,08,10,01,16.70
2015,06,08,10,02,16.80
2015,06,08,10,03,16.90
2015,06,08,10,04,16.90
2015,06,08,10,05,17.00
2015,06,08,10,06,17.10
2015,06,08,10,07,17.10
2015,06,08,10,08,17.10
2015,06,08,10,09,17.20
2015,06,08,10,10,17.20
2015,06,08,10,11,17.30
2015,06,08,10,12,17.30
2015,06,08,10,13,17.30
2015,06,08,10,14,17.40
2015,06,08,10,15,17.40
2015,06,08,10,16,17.40
2015,06,08,10,17,17.50
2015,06,08,10,18,17.50
2015,06,08,10,19,17.60
2015,06,08,10,20,17.60
2015,06,08,10,21,17.60
2015,06,08,10,22,17.60
2015,06,08,10,23,17.60
2015,06,08,10,24,17.60
2015,06,08,10,25,17.60
2015,06,08,10,26,17.60
2015,06,08,10,27,17.60
2015,06,08,10,28,17.60
2015,06,08,10,29,17.60
2015,06,08,10,30,17.70
2015,06,08,10,31,17.70
2015,06,08,10,32,17.70
2015,06,08,10,33,17.80
2015,06,08,10,34,17.80
2015,06,08,10,35,17.90
2015,06,08,10,36,17.90
2015,06,08,10,37,17.90
2015,06,08,10,38,17.90
2015,06,08,10,39,17.80
2015,06,08,10,40,17.80
2015,06,08,10,41,17.80
2015,06,08,10,42,17.80
2015,06,08,10,43,17.70
2015,06,08,10,44,17.70
2015,06,08,10,45,17.60
2015,06,08,10,46,17.60
2015,06,08,10,47,17.60
2015,06,08,10,48,17.60
2015,06,08,10,49,17.60
2015,06,08,10,50,17.70
2015,06,08,10,51,17.80
2015,06,08,10,52,17.90
2015,06,08,10,53,17.90
2015,06,08,10,54,17.90
2015,06,08,10,55,17.90
2015,06,08,10,56,18.00
2015,06,08,10,57,18.10
2015,06,08,10,58,18.20
2015,06,08,10,59,18.30
2015,06,08,11,00,18.30
2015,06,08,11,01,18.30
2015,06,08,11,02,18.30
2015,06,08,11,03,18.30
2015,06,08,11,04,18.30
2015,06,08,11,05,18.40
2015,06,08,11,06,18.40
2015,06,08,11,07,18.40
2015,06,08,11,08,18.50
2015,06,08,11,09,18.50
2015,06,08,11,10,18.60
2015,06,08,11,11,18.60
2015,06,08,11,12,18.70
2015,06,08,11,13,18.80
2015,06,08,11,14,18.80
2015,06,08,11,15,18.80
2015,06,08,11,16,18.80
2015,06,08,11,17,18.90
2015,06,08,11,18,18.90
2015,06,08,11,19,18.90
2015,06,08,11,20,19.00
2015,06,08,11,21,19.00
2015,06,08,11,22,19.10
2015,06,08,11,23,19.10
2015,06,08,11,24,19.20
2015,06,08,11,25,19.20
2015,06,08,11,26,19.30
2015,06,08,11,27,19.30
2015,06,08,11,28,19.30
2015,06,08,11,29,19.40
2015,06,08,11,30,19.50
2015,06,08,11,31,19.50
2015,06,08,11,32,19.60
2015,06,08,11,33,19.60
2015,06,08,11,34,19.70
2015,06,08,11,35,19.70
2015,06,08,11,36,19.70
2015,06,08,11,37,19.80
2015,06,08,11,38,19.80
2015,06,08,11,39,19.80
2015,06,08,11,40,19.80
2015,06,08,11,41,19.90
2015,06,08,11,42,19.90
2015,06,08,11,43,19.90
2015,06,08,11,44,20.00
2015,06,08,11,45,20.00
2015,06,08,11,46,20.10
2015,06,08,11,47,20.10
2015,06,08,11,48,20.10
2015,06,08,11,49,20.00
2015,06,08,11,50,20.00
2015,06,08,11,51,20.00
2015,06,08,11,52,20.10
2015,06,08,11,53,20.10
2015,06,08,11,54,20.10
2015,06,08,11,55,20.10
2015,06,08,11,56,20.10
2015,06,08,11,57,20.10
2015,06,08,11,58,20.10
2015,06,08,11,59,20.10
2015,06,08,12,00,20.10
2015,06,08,12,01,20.00
2015,06,08,12,02,20.00
2015,06,08,12,03,20.00
2015,06,08,12,04,20.00
2015,06,08,12,05,20.10
2015,06,08,12,06,20.00
2015,06,08,12,07,20.10
2015,06,08,12,08,20.10
2015,06,08,12,09,20.20
2015,06,08,12,10,20.20
2015,06,08,12,11,20.30
2015,06,08,12,12,20.30
2015,06,08,12,13,20.30
2015,06,08,12,14,20.30
2015,06,08,12,15,20.30
2015,06,08,12,16,20.30
2015,06,08,12,17,20.30
2015,06,08,12,18,20.30
2015,06,08,12,19,20.30
2015,06,08,12,20,20.10
2015,06,08,12,21,20.00
2015,06,08,12,22,19.80
2015,06,08,12,23,19.80
2015,06,08,12,24,19.80
2015,06,08,12,25,19.70
2015,06,08,12,26,19.70
2015,06,08,12,27,19.60
2015,06,08,12,28,19.40
2015,06,08,12,29,19.40
2015,06,08,12,30,19.30
2015,06,08,12,31,19.20
2015,06,08,12,32,19.20
2015,06,08,12,33,19.20
2015,06,08,12,34,19.30
2015,06,08,12,35,19.30
2015,06,08,12,36,19.30
2015,06,08,12,37,19.20
2015,06,08,12,38,19.20
2015,06,08,12,39,19.20
2015,06,08,12,40,19.20
2015,06,08,12,41,19.20
2015,06,08,12,42,19.20
2015,06,08,12,43,19.30
2015,06,08,12,44,19.30
2015,06,08,12,45,19.30
2015,06,08,12,46,19.40
2015,06,08,12,47,19.40
2015,06,08,12,48,19.40
2015,06,08,12,49,19.40
2015,06,08,12,50,19.30
2015,06,08,12,51,19.30
2015,06,08,12,52,19.30
2015,06,08,12,53,19.40
2015,06,08,12,54,19.50
2015,06,08,12,55,19.60
2015,06,08,12,56,19.70
2015,06,08,12,57,19.80
2015,06,08,12,58,19.80
2015,06,08,12,59,19.90
2015,06,08,13,00,20.00
2015,06,08,13,01,20.00
2015,06,08,13,02,20.00
2015,06,08,13,03,20.00
2015,06,08,13,04,20.00
2015,06,08,13,05,19.90
2015,06,08,13,06,19.90
2015,06,08,13,07,19.80
2015,06,08,13,08,19.80
2015,06,08,13,09,19.80
2015,06,08,13,10,19.80
2015,06,08,13,11,19.90
2015,06,08,13,12,19.90
2015,06,08,13,13,19.90
2015,06,08,13,14,20.00
2015,06,08,13,15,20.00
2015,06,08,13,16,20.00
2015,06,08,13,17,20.00
2015,06,08,13,18,20.00
2015,06,08,13,19,20.00
2015,06,08,13,20,19.90
2015,06,08,13,21,19.90
2015,06,08,13,22,19.90
2015,06,08,13,23,19.90
2015,06,08,13,24,19.90
2015,06,08,13,25,20.00
2015,06,08,13,26,20.10
2015,06,08,13,27,20.10
2015,06,08,13,28,20.20
2015,06,08,13,29,20.20
2015,06,08,13,30,20.30
2015,06,08,13,31,20.30
2015,06,08,13,32,20.40
2015,06,08,13,33,20.50
2015,06,08,13,34,20.70
2015,06,08,13,35,20.80
2015,06,08,13,36,20.80
2015,06,08,13,37,20.90
2015,06,08,13,38,20.80
2015,06,08,13,39,20.80
2015,06,08,13,40,20.60
2015,06,08,13,41,20.50
2015,06,08,13,42,20.40
2015,06,08,13,43,20.30
2015,06,08,13,44,20.20
2015,06,08,13,45,20.10
2015,06,08,13,46,20.00
2015,06,08,13,47,19.90
2015,06,08,13,48,19.90
2015,06,08,13,49,19.80
2015,06,08,13,50,19.80
2015,06,08,13,51,19.60
2015,06,08,13,52,19.60
2015,06,08,13,53,19.40
2015,06,08,13,54,19.30
2015,06,08,13,55,19.20
2015,06,08,13,56,19.10
2015,06,08,13,57,18.90
2015,06,08,13,58,18.60
2015,06,08,13,59,18.40
2015,06,08,14,00,18.10
2015,06,08,14,01,17.90
2015,06,08,14,02,17.70
2015,06,08,14,03,17.60
2015,06,08,14,04,17.50
2015,06,08,14,05,17.40
2015,06,08,14,06,17.40
2015,06,08,14,07,17.40
2015,06,08,14,08,17.40
2015,06,08,14,09,17.50
2015,06,08,14,10,17.60
2015,06,08,14,11,17.70
2015,06,08,14,12,17.80
2015,06,08,14,13,17.90
2015,06,08,14,14,17.90
2015,06,08,14,15,17.90
2015,06,08,14,16,17.90
2015,06,08,14,17,17.80
2015,06,08,14,18,17.80
2015,06,08,14,19,17.80
2015,06,08,14,20,17.70
2015,06,08,14,21,17.60
2015,06,08,14,22,17.50
2015,06,08,14,23,17.30
2015,06,08,14,24,17.10
2015,06,08,14,25,17.00
2015,06,08,14,26,16.80
2015,06,08,14,27,16.70
2015,06,08,14,28,16.50
2015,06,08,14,29,16.30
2015,06,08,14,30,16.20
2015,06,08,14,31,16.10
2015,06,08,14,32,15.90
2015,06,08,14,33,15.70
2015,06,08,14,34,15.60
2015,06,08,14,35,15.50
2015,06,08,14,36,15.50
2015,06,08,14,37,15.40
2015,06,08,14,38,15.40
2015,06,08,14,39,15.30
2015,06,08,14,40,15.20
2015,06,08,14,41,15.10
2015,06,08,14,42,15.00
2015,06,08,14,43,14.90
2015,06,08,14,44,14.80
2015,06,08,14,45,14.70
2015,06,08,14,46,14.70
2015,06,08,14,47,14.70
2015,06,08,14,48,14.80
2015,06,08,14,49,14.80
2015,06,08,14,50,14.80
2015,06,08,14,51,14.80
2015,06,08,14,52,14.80
2015,06,08,14,53,14.80
2015,06,08,14,54,14.80
2015,06,08,14,55,14.90
2015,06,08,14,56,14.80
2015,06,08,14,57,14.80
2015,06,08,14,58,14.80
2015,06,08,14,59,14.80
2015,06,08,15,00,14.80
2015,06,08,15,01,14.80
2015,06,08,15,02,14.80
2015,06,08,15,03,14.80
2015,06,08,15,04,14.80
2015,06,08,15,05,14.80
2015,06,08,15,06,14.90
2015,06,08,15,07,15.10
2015,06,08,15,08,15.20
2015,06,08,15,09,15.30
2015,06,08,15,10,15.40
2015,06,08,15,11,15.40
2015,06,08,15,12,15.50
2015,06,08,15,13,15.50
2015,06,08,15,14,15.70
2015,06,08,15,15,15.70
2015,06,08,15,16,15.90
2015,06,08,15,17,16.00
2015,06,08,15,18,15.90
2015,06,08,15,19,15.90
2015,06,08,15,20,15.90
2015,06,08,15,21,15.70
2015,06,08,15,22,15.60
2015,06,08,15,23,15.50
2015,06,08,15,24,15.40
2015,06,08,15,25,15.30
2015,06,08,15,26,15.30
2015,06,08,15,27,15.30
2015,06,08,15,28,15.30
2015,06,08,15,29,15.30
2015,06,08,15,30,15.30
2015,06,08,15,31,15.30
2015,06,08,15,32,15.30
2015,06,08,15,33,15.40
2015,06,08,15,34,15.40
2015,06,08,15,35,15.40
2015,06,08,15,36,15.50
2015,06,08,15,37,15.50
2015,06,08,15,38,15.60
2015,06,08,15,39,15.50
2015,06,08,15,40,15.60
2015,06,08,15,41,15.60
2015,06,08,15,42,15.60
2015,06,08,15,43,15.60
2015,06,08,15,44,15.60
2015,06,08,15,45,15.50
2015,06,08,15,46,15.50
2015,06,08,15,47,15.40
2015,06,08,15,48,15.30
2015,06,08,15,49,15.10
2015,06,08,15,50,15.10
2015,06,08,15,51,15.00
2015,06,08,15,52,15.00
2015,06,08,15,53,15.00
2015,06,08,15,54,15.00
2015,06,08,15,55,15.00
2015,06,08,15,56,15.10
2015,06,08,15,57,15.10
2015,06,08,15,58,15.10
2015,06,08,15,59,15.10
2015,06,08,16,00,15.00
2015,06,08,16,01,15.10
2015,06,08,16,02,15.10
2015,06,08,16,03,15.20
2015,06,08,16,04,15.10
2015,06,08,16,05,15.10
2015,06,08,16,06,15.10
2015,06,08,16,07,15.10
2015,06,08,16,08,15.10
2015,06,08,16,09,15.10
2015,06,08,16,10,15.10
2015,06,08,16,11,15.20
2015,06,08,16,12,15.20
2015,06,08,16,13,15.30
2015,06,08,16,14,15.30
2015,06,08,16,15,15.30
2015,06,08,16,16,15.40
2015,06,08,16,17,15.50
2015,06,08,16,18,15.50
2015,06,08,16,19,15.40
2015,06,08,16,20,15.30
2015,06,08,16,21,15.30
2015,06,08,16,22,15.30
2015,06,08,16,23,15.30
2015,06,08,16,24,15.20
2015,06,08,16,25,15.10
2015,06,08,16,26,15.10
2015,06,08,16,27,15.10
2015,06,08,16,28,15.20
2015,06,08,16,29,15.30
2015,06,08,16,30,15.40
2015,06,08,16,31,15.50
2015,06,08,16,32,15.70
2015,06,08,16,33,15.90
2015,06,08,16,34,15.90
2015,06,08,16,35,16.00
2015,06,08,16,36,16.00
2015,06,08,16,37,16.10
2015,06,08,16,38,16.10
2015,06,08,16,39,16.10
2015,06,08,16,40,16.20
2015,06,08,16,41,16.30
2015,06,08,16,42,16.40
2015,06,08,16,43,16.50
2015,06,08,16,44,16.60
2015,06,08,16,45,16.80
2015,06,08,16,46,16.90
2015,06,08,16,47,17.00
2015,06,08,16,48,17.10
2015,06,08,16,49,17.20
2015,06,08,16,50,17.20
2015,06,08,16,51,17.20
2015,06,08,16,52,17.30
2015,06,08,16,53,17.30
2015,06,08,16,54,17.40
2015,06,08,16,55,17.40
2015,06,08,16,56,17.50
2015,06,08,16,57,17.50
2015,06,08,16,58,17.50
2015,06,08,16,59,17.50
2015,06,08,17,00,17.40
2015,06,08,17,01,17.40
2015,06,08,17,02,17.40
2015,06,08,17,03,17.40
2015,06,08,17,04,17.40
2015,06,08,17,05,17.50
2015,06,08,17,06,17.60
2015,06,08,17,07,17.70
2015,06,08,17,08,17.70
2015,06,08,17,09,17.80
2015,06,08,17,10,17.80
2015,06,08,17,11,17.90
2015,06,08,17,12,17.90
2015,06,08,17,13,17.90
2015,06,08,17,14,17.80
2015,06,08,17,15,17.80
2015,06,08,17,16,17.80
2015,06,08,17,17,17.80
2015,06,08,17,18,17.90
2015,06,08,17,19,17.90